This is the latest recevied weather packets stored in our database for station/object KR4ELZ. If no packets are shown the sender has not sent any weather packets the latest 10 day(s).
| Time | Temp. | Humidity | Pressure | Rain* | Wind** | Luminosity | Snow |
|---|---|---|---|---|---|---|---|
| 1777933280 | 26.67° C | 41% | 1010.2 hPa | 0 mm | - | 195 W/m² | - |
| 1777932977 | 27.22° C | 39% | 1010.2 hPa | 0 mm | - | 207 W/m² | - |
| 1777932674 | 26.67° C | 39% | 1010.4 hPa | 0 mm | - | 221 W/m² | - |
| 1777932370 | 26.67° C | 39% | 1010.3 hPa | 0 mm | - | 232 W/m² | - |
| 1777932068 | 26.67° C | 40% | 1010.4 hPa | 0 mm | - | 245 W/m² | - |
| 1777931764 | 27.22° C | 39% | 1010.4 hPa | 0 mm | - | 231 W/m² | - |
| 1777931461 | 27.22° C | 38% | 1010.2 hPa | 0 mm | - | 263 W/m² | - |
| 1777931157 | 26.67° C | 38% | 1010.4 hPa | 0 mm | - | 287 W/m² | - |
| 1777930854 | 26.67° C | 39% | 1010.1 hPa | 0 mm | - | 294 W/m² | - |
| 1777930550 | 27.78° C | 39% | 1010.4 hPa | 0 mm | - | 311 W/m² | - |
| 1777930247 | 27.78° C | 38% | 1010.2 hPa | 0 mm | - | 324 W/m² | - |
| 1777929943 | 27.22° C | 40% | 1010.4 hPa | 0 mm | - | 338 W/m² | - |
| 1777929641 | 27.22° C | 38% | 1010.5 hPa | 0 mm | - | 353 W/m² | - |
| 1777929337 | 27.78° C | 39% | 1010.5 hPa | 0 mm | - | 360 W/m² | - |
| 1777929034 | 27.78° C | 39% | 1010.6 hPa | 0 mm | - | 390 W/m² | - |
| 1777928731 | 27.78° C | 41% | 1010.6 hPa | 0 mm | - | 404 W/m² | - |
| 1777928428 | 27.78° C | 40% | 1010.5 hPa | 0 mm | - | 400 W/m² | - |
| 1777928126 | 26.67° C | 40% | 1010.6 hPa | 0 mm | - | 417 W/m² | - |
| 1777927824 | 26.67° C | 40% | 1010.9 hPa | 0 mm | - | 437 W/m² | - |
| 1777927521 | 27.78° C | 40% | 1010.7 hPa | 0 mm | - | 453 W/m² | - |
| 1777927220 | 27.78° C | 40% | 1010.9 hPa | 0 mm | - | 457 W/m² | - |
| 1777926918 | 27.22° C | 41% | 1011 hPa | 0 mm | - | 467 W/m² | - |
| 1777926615 | 26.67° C | 43% | 1011.2 hPa | 0 mm | - | 530 W/m² | - |
| 1777926310 | 27.22° C | 40% | 1011.1 hPa | 0 mm | - | 560 W/m² | - |
| 1777926007 | 27.22° C | 42% | 1011.3 hPa | 0 mm | - | 222 W/m² | - |
* Rain latest hour (hover to see other rain measurements)
** Current wind speed in m/s (hover to see current wind gust speed)